Flag for U.S.A. Weather past 2 weeks in Metairie, Louisiana, U.S.A.

Now
67 °F

Passing clouds.


Feels Like: 67 °F
Forecast: 62 / 78 °F
Wind: 12 mph from Northeast

Location: New Orleans International Airport

Current Time: Oct 22, 2014 at 8:01:28 AM

Latest Report: Oct 22, 2014 at 6:53 AM


Visibility: 10 mi

Pressure: 30.05 "Hg

Humidity: 79%

Dew point: 60 °F

Location of MetairieLocation

Historic Weather in Metairie — Graph

°F

Metairie temperature yesterday

Maximum temperature yesterday: 79 °F (at 3:53 PM)
Minimum temperature yesterday: 59 °F (at 5:53 AM)
Average temperature yesterday: 69 °F

Past Weeks' High & Low Weather Summary

 TemperatureHumidityPressure
High88 °F (Oct 9, 12:53 PM)94% (Oct 8, 7:53 AM)30.13 "Hg (Oct 8, 7:53 AM)
Low56 °F (Oct 15, 3:53 AM)29% (Oct 15, 1:53 PM)29.74 "Hg (Oct 13, 5:03 PM)
Average74 °F70%30.01 "Hg
* Reported Oct 7 6:53 AM — Oct 22 6:53 AM, Metairie, Weather by CustomWeather, © 2014

Note: Actual official high and low records may vary slightly from our data, if they occured in-between our weather recording intervals... More about our weather records

Advertising

Metairie weather history for previous 24 hours

 ConditionsComfort  
Time TempWeatherWind HumidityBarometerVisibility
6:53 AM
Oct 22
67 °FPassing clouds.12 mph79%30.05 "Hg10 mi
5:53 AM67 °FClear.8 mph76%30.05 "Hg10 mi
4:53 AM67 °FPassing clouds.7 mph76%30.03 "Hg10 mi
3:53 AM67 °FPassing clouds.5 mph73%30.03 "Hg10 mi
2:53 AM67 °FPassing clouds.6 mph76%30.03 "Hg10 mi
1:53 AM64 °FPassing clouds.6 mph78%30.02 "Hg10 mi
12:53 AM64 °FClear.No wind75%30.03 "Hg10 mi
11:53 PM
Oct 21
64 °FClear.No wind75%30.03 "Hg10 mi
10:53 PM65 °FPassing clouds.No wind76%30.04 "Hg10 mi
9:53 PM67 °FClear.5 mph71%30.04 "Hg10 mi
8:53 PM69 °FClear.No wind66%30.01 "Hg10 mi
7:53 PM71 °FClear.No wind57%30.00 "Hg10 mi
6:53 PM74 °FPassing clouds.3 mph50%29.98 "Hg10 mi
5:53 PM78 °FPassing clouds.5 mph42%29.98 "Hg10 mi
4:53 PM79 °FPassing clouds.6 mph41%29.98 "Hg10 mi
3:53 PM79 °FSunny.5 mph39%29.99 "Hg10 mi
2:53 PM78 °FSunny.6 mph42%30.00 "Hg10 mi
1:53 PM78 °FSunny.9 mph40%30.01 "Hg10 mi
12:53 PM77 °FPassing clouds.10 mph44%30.04 "Hg10 mi
11:53 AM75 °FPassing clouds.10 mph48%30.06 "Hg10 mi
10:53 AM74 °FPassing clouds.13 mph50%30.07 "Hg10 mi
9:53 AM73 °FPassing clouds.10 mph53%30.07 "Hg10 mi
8:53 AM70 °FPassing clouds.13 mph64%30.06 "Hg10 mi
Weather by CustomWeather, © 2014

See weather overviewHow to use our weather pages